This demonstration page uses our WeatherBlox Daily Observations layout. Learn more.

Left ArrowRight Arrow

Hourly Observations for June 2, 2018

Temp ( °F °C ) Dew Point ( °F °C ) Humidity (%) Winds ( mph kmh ) Pressure ( in mb ) Visibility ( mi km ) Precip ( " mm )
12:01 am 00:01 Cloudy with Nearby Thunderstorms 72 22.2 57 13.9 59 59 NNW 25 41 29.77 1008 10 16 0.00 0.00
12:19 am 00:19 Cloudy with Strong Thunderstorms 65 18.3 61 16.1 87 87 NNW 20 31 29.85 1011 3 4 0.02 0.51
12:28 am 00:28 Cloudy with Strong Thunderstorms 64 17.8 62 16.7 93 93 N 22 35 29.80 1009 1 2 0.18 4.57
12:54 am 00:54 Cloudy with Strong Thunderstorms 64 17.8 62 16.7 93 93 W 16 26 29.88 1012 2 2 0.72 18.29
1:07 am 01:07 Cloudy with Strong Thunderstorms 64 17.8 63 17.2 96 96 NNW 15 24 29.85 1011 2 3 0.17 4.32
1:16 am 01:16 Cloudy with Strong Thunderstorms 65 18.3 63 17.2 93 93 N 23 37 29.85 1011 3 5 0.23 5.84
1:52 am 01:52 Cloudy with Nearby Thunderstorms 64 18 61 16 88 88 NNE 17 28 29.80 1009 10 16 0.32 8.13
1:54 am 01:54 Cloudy with Nearby Thunderstorms 65 18.3 61 16.1 87 87 NNE 16 26 29.80 1009 10 16 0.32 8.13
2:51 am 02:51 Cloudy with Thunderstorms 64 18 61 16 88 88 N 18 30 29.85 1011 7 11 0.04 1.02
2:54 am 02:54 Cloudy with Thunderstorms 64 17.8 61 16.1 90 90 NNE 15 24 29.84 1011 7 11 0.05 1.27
3:18 am 03:18 Cloudy with Nearby Thunderstorms 64 17.8 61 16.1 90 90 N 15 24 29.88 1012 6 10 0.05 1.27
3:37 am 03:37 Cloudy with Thunderstorms 64 17.8 61 16.1 90 90 NE 14 22 29.85 1011 6 10 0.10 2.54
3:54 am 03:54 Mostly Cloudy with Thunderstorms 64 17.8 61 16.1 90 90 ENE 23 37 29.77 1008 6 10 0.15 3.81
4:01 am 04:01 Mostly Cloudy with Rain 64 17.8 60 15.6 87 87 E 30 48 29.74 1007 7 11 0.00 0.03
4:54 am 04:54 Clear 65 18.3 61 16.1 87 87 NNW 10 17 29.78 1008 10 16 0.01 0.25
5:54 am 05:54 Clear 64 17.8 61 16.1 90 90 Calm 29.81 1009 10 16 0.00 0.00
6:54 am 06:54 Sunny 63 17.2 61 16.1 93 93 W 7 11 29.84 1011 10 16 0.00 0.00
7:54 am 07:54 Mostly Sunny 66 18.9 61 16.1 84 84 WNW 12 19 29.91 1013 10 16 0.00 0.00
8:54 am 08:54 Sunny 71 21.7 61 16.1 71 71 WNW 15 24 29.92 1013 10 16 0.00 0.00
9:54 am 09:54 Mostly Sunny 73 22.8 62 16.7 69 69 NNW 18 30 29.93 1014 10 16 0.00 0.00
10:54 am 10:54 Sunny 74 23.3 57 13.9 56 56 NW 23 37 29.95 1014 10 16 0.00 0.00
11:54 am 11:54 Mostly Sunny 75 23.9 57 13.9 54 54 NNW 25 41 29.98 1015 10 16 0.00 0.00
12:54 pm 12:54 Sunny 76 24.4 54 12.2 47 47 NNW 20 31 30.00 1016 10 16 0.00 0.00
1:54 pm 13:54 Sunny 78 25.6 53 11.7 42 42 NW 26 43 30.00 1016 10 16 0.00 0.00
2:54 pm 14:54 Sunny 79 26.1 53 11.7 41 41 NW 20 31 30.00 1016 10 16 0.00 0.00
3:54 pm 15:54 Sunny 80 26.7 51 10.6 37 37 NW 21 33 30.01 1016 10 16 0.00 0.00
4:54 pm 16:54 Sunny 80 26.7 50 10 35 35 NW 22 35 30.02 1017 10 16 0.00 0.00
5:54 pm 17:54 Sunny 80 26.7 47 8.3 31 31 NNW 20 31 30.02 1017 10 16 0.00 0.00
6:54 pm 18:54 Sunny 79 26.1 48 8.9 34 34 NNW 16 26 30.02 1017 10 16 0.00 0.00
7:54 pm 19:54 Sunny 76 24.4 50 10 40 40 NNW 12 19 30.02 1017 10 16 0.00 0.00
8:54 pm 20:54 Clear 73 22.8 50 10 44 44 WNW 5 7 30.04 1017 10 16 0.00 0.00
9:54 pm 21:54 Clear 70 21.1 50 10 49 49 WNW 6 9 30.06 1018 10 16 0.00 0.00
10:54 pm 22:54 Clear 66 18.9 51 10.6 59 59 W 3 6 30.09 1019 10 16 0.00 0.00
11:54 pm 23:54 Clear 64 17.8 50 10 60 60 NNW 3 6 30.09 1019 10 16 0.00 0.00

Powered by AerisWeather